Easton, MD

3:24 PM EST on November 13, 2019 (GMT -0500)
Easton / Newnam

Weather History for KESN - September, 2019

Change the Weather History Date:

Thursday, September 26, 2019

  Actual Average Record
Temperature  
Mean Temperature 76 °F -  
Max Temperature 89 °F 78 °F 93 °F (1970)
Min Temperature 64 °F 57 °F 36 °F (1949)
Cooling Degree Days 12    
Growing Degree Days 26 (Base 50)    
Moisture  
Dew Point 63 °F    
Average Humidity 75    
Maximum Humidity 100    
Minimum Humidity 40    
Precipitation  
Precipitation 0.00 in - - ()
Sea Level Pressure  
Sea Level Pressure 29.89 in    
Wind  
Wind Speed 5 mph (SSE)    
Max Wind Speed 9 mph    
Max Gust Speed -    
Visibility 10 miles    
Events      
Averages and records for this station are not official NWS values.
T = Trace of Precipitation, MM = Missing Value Source: NWS Daily Summary

Daily Weather History Graph

Daily Weather History Graph

Search for Another Location

Airport or City:

Astronomy

Sep. 26, 2019 Rise Set
Actual Time 6:55 AM EDT 6:55 PM EDT
Civil Twilight 6:28 AM EDT 7:21 PM EDT
Nautical Twilight 5:57 AM EDT 7:52 PM EDT
Astronomical Twilight 5:26 AM EDT 8:24 PM EDT
Moon 4:01 AM EDT (9/26) 6:04 PM EDT (9/26)
Length of Visible Light 12h 52m
Length of Day
11h 59m
Waning Crescent, 7% of the Moon is Illuminated
Sep 26
Waning Crescent
Sep 28
New
Oct 5
First Quarter
Oct 13
Full
Oct 21
Last Quarter

Hourly Weather History & Observations

Time (EDT) Temp. Heat Index Dew Point Humidity Pressure Visibility Wind Dir Wind Speed Gust Speed Precip Events Conditions
12:19 AM 64.4 °F - 55.9 °F 74% 29.93 in 10.0 mi SSE 3.5 mph - N/A   Clear
12:39 AM 66.2 °F - 57.9 °F 75% 29.93 in 10.0 mi SSE 4.6 mph - N/A   Clear
12:59 AM 67.1 °F - 59.5 °F 77% 29.93 in 10.0 mi SSE 5.8 mph - N/A   Clear
1:19 AM 67.1 °F - 60.4 °F 79% 29.92 in 10.0 mi SSE 5.8 mph - N/A   Clear
1:39 AM 67.1 °F - 61.0 °F 81% 29.92 in 10.0 mi SSE 5.8 mph - N/A   Clear
1:59 AM 67.3 °F - 61.5 °F 82% 29.92 in 10.0 mi SSE 5.8 mph - N/A   Clear
2:19 AM 68.0 °F - 61.7 °F 80% 29.91 in 10.0 mi SSE 6.9 mph - N/A   Clear
2:39 AM 67.5 °F - 61.9 °F 82% 29.90 in 10.0 mi SSE 5.8 mph - N/A   Clear
2:59 AM 67.3 °F - 62.4 °F 84% 29.90 in 10.0 mi SSE 5.8 mph - N/A   Clear
3:19 AM 67.6 °F - 63.0 °F 85% 29.89 in 10.0 mi SSE 5.8 mph - N/A   Clear
3:40 AM 68.0 °F - 63.5 °F 85% 29.89 in 10.0 mi South 4.6 mph - N/A   Clear
4:00 AM 67.5 °F - 63.5 °F 87% 29.88 in 10.0 mi SSE 3.5 mph - N/A   Clear
4:20 AM 67.3 °F - 63.9 °F 89% 29.88 in 10.0 mi SSE 4.6 mph - N/A   Clear
4:40 AM 66.7 °F - 64.2 °F 92% 29.87 in 10.0 mi SE 3.5 mph - N/A   Clear
5:00 AM 66.4 °F - 64.2 °F 93% 29.87 in 10.0 mi Calm Calm - N/A   Clear
5:20 AM 65.3 °F - 63.5 °F 94% 29.87 in 10.0 mi SE 3.5 mph - N/A   Clear
5:40 AM 65.3 °F - 63.5 °F 94% 29.86 in 10.0 mi SE 3.5 mph - N/A   Clear
5:50 AM 64.4 °F - 64.4 °F 100% 29.86 in 10.0 mi Calm Calm - N/A   Clear
6:50 AM 66.2 °F - 64.4 °F 94% 29.86 in 10.0 mi SSE 4.6 mph - N/A   Scattered Clouds
7:50 AM 69.8 °F - 66.2 °F 88% 29.86 in 10.0 mi South 3.5 mph - N/A   Scattered Clouds
8:50 AM 73.4 °F - 69.8 °F 88% 29.86 in 10.0 mi South 6.9 mph - N/A   Scattered Clouds
9:50 AM 75.2 °F - 69.8 °F 83% 29.88 in 10.0 mi SSW 9.2 mph - N/A   Mostly Cloudy
10:50 AM 78.8 °F - 69.8 °F 74% 29.85 in 10.0 mi South 9.2 mph - N/A   Clear
11:50 AM 82.4 °F 86.3 °F 69.8 °F 66% 29.84 in 10.0 mi South 5.8 mph - N/A   Clear
12:50 PM 86.0 °F 89.4 °F 68.0 °F 55% 29.83 in 10.0 mi SSW 6.9 mph - N/A   Clear
1:50 PM 87.8 °F 92.6 °F 69.8 °F 55% 29.80 in 10.0 mi SSW 8.1 mph - N/A   Clear
2:50 PM 89.6 °F 91.1 °F 64.4 °F 43% 29.79 in 10.0 mi SSW 6.9 mph - N/A   Clear
3:50 PM 89.6 °F 90.1 °F 62.6 °F 40% 29.79 in 10.0 mi SW 8.1 mph - N/A   Scattered Clouds
4:50 PM 87.8 °F 89.4 °F 64.4 °F 46% 29.81 in 10.0 mi West 6.9 mph - N/A   Clear
5:50 PM 82.4 °F 84.6 °F 66.2 °F 58% 29.84 in 10.0 mi NW 9.2 mph - N/A   Mostly Cloudy
6:50 PM 80.6 °F 81.8 °F 62.6 °F 54% 29.87 in 10.0 mi NNW 6.9 mph - N/A   Mostly Cloudy
7:50 PM 78.8 °F - 60.8 °F 54% 29.90 in 10.0 mi NNE 5.8 mph - N/A   Mostly Cloudy
8:50 PM 75.2 °F - 62.6 °F 65% 29.93 in 10.0 mi NNE 4.6 mph - N/A   Mostly Cloudy
10:20 PM 70.9 °F - 61.2 °F 71% 29.95 in 10.0 mi NNE 5.8 mph - N/A   Clear
10:40 PM 70.2 °F - 60.8 °F 72% 29.97 in 10.0 mi NNE 4.6 mph - N/A   Clear
11:00 PM 69.3 °F - 60.4 °F 73% 29.97 in 10.0 mi NNE 4.6 mph - N/A   Clear
11:20 PM 68.5 °F - 60.4 °F 75% 29.98 in 10.0 mi NNE 6.9 mph - N/A   Clear
11:40 PM 68.9 °F - 60.4 °F 74% 29.98 in 10.0 mi NE 8.1 mph - N/A   Clear